• Processing (Info)

  • MPEC 2023-G15 : 2023 FE14

    The following Minor Planet Electronic Circular may be linked-to from your own Web pages, but must not otherwise be redistributed electronically.

    A form allowing access to any MPEC is at the bottom of this page.


    Read MPEC 2023-G14 Read MPEC 2023-G16


    M.P.E.C. 2023-G15                                 Issued 2023 April 2, 11:08 UT
    
         The Minor Planet Electronic Circulars contain information on unusual
             minor planets, routine data on comets and natural satellites,
             and occasional editorial announcements.  They are published
        on behalf of Division F of the International Astronomical Union by the
              Minor Planet Center, Smithsonian Astrophysical Observatory,
                              Cambridge, MA 02138, U.S.A.
    			  
                 Prepared using the Tamkin Foundation Computer Network
    
                                  MPC@CFA.HARVARD.EDU
                URL https://www.minorplanetcenter.net/    ISSN 1523-6714
    
                                    2023 FE14                                
    
    
    Observations:
         K23F14E*1C2023 03 29.39445016 27 27.940+52 28 34.90         21.45GVEG015G96
         K23F14E 1C2023 03 29.39971116 27 27.652+52 28 27.55         21.46GVEG015G96
         K23F14E 1C2023 03 29.40497516 27 27.396+52 28 20.39         21.31GVEG015G96
         K23F14E 1C2023 03 29.41024416 27 27.130+52 28 12.83         20.96GVEG015G96
         K23F14E KC2023 03 29.49373616 27 23.450+52 26 17.38         21.05GVEG015I52
         K23F14E KC2023 03 29.49740516 27 23.404+52 26 12.01         21.52GVEG015I52
         K23F14E KC2023 03 29.50322816 27 23.126+52 26 03.91         22.05GVEG015I52
         K23F14E KC2023 03 29.50808916 27 22.907+52 25 56.64         21.83GVEG015I52
         K23F14E KC2023 03 30.33662716 26 55.471+52 06 25.09         21.09GVEG015V06
         K23F14E KC2023 03 30.34297816 26 55.165+52 06 16.31         21.28GVEG015V06
         K23F14E KC2023 03 30.34933016 26 54.870+52 06 07.78         21.26GVEG015V06
         K23F14E KC2023 03 30.35568416 26 54.607+52 05 58.85         21.00GVEG015V06
         K23F14E KC2023 04 01.37238616 25 30.731+51 17 32.17         21.58GVEG015I52
         K23F14E KC2023 04 01.37623316 25 30.468+51 17 26.27         22.25GVEG015I52
         K23F14E DC2023 04 02.35701 16 24 43.73 +50 53 16.3          21.4 GVEG015695
         K23F14E DC2023 04 02.36202 16 24 43.45 +50 53 09.1          21.6 GVEG015695
         K23F14E DC2023 04 02.36704 16 24 43.15 +50 53 01.9          21.7 GVEG015695
    
    Observer details:
    695 Kitt Peak.  Observer R. A. Mastaler.  2.3-m f/9 reflector + CCD.
    G96 Mt. Lemmon Survey.  Observer G. J. Leonard.  Measurers E. J. Christensen,
        D. Fay, J. B. Fazekas, D. C. Fuls, A. R. Gibbs, A. D. Grauer, H. Groeller,
        J. K. Hogan, R. A. Kowalski, S. M. Larson, G. J. Leonard, D. Rankin, R. L.
        Seaman, A. Serrano, F. C. Shelly, K. W. Wierzchos.  1.5-m reflector + 10K
        CCD.
    I52 Steward Observatory, Mt. Lemmon Station.  Observers J. B. Fazekas, J. K.
        Hogan.  Measurers E. J. Christensen, D. Fay, J. B. Fazekas, D. C. Fuls, A.
        R. Gibbs, A. D. Grauer, H. Groeller, J. K. Hogan, R. A. Kowalski, S. M.
        Larson, G. J. Leonard, D. Rankin, R. L. Seaman, A. Serrano, F. C. Shelly,
        K. W. Wierzchos.  1.0-m prime focus + CCD.
    V06 Catalina Sky Survey-Kuiper.  Observer J. B. Fazekas.  Measurers E. J.
        Christensen, D. Fay, J. B. Fazekas, D. C. Fuls, A. R. Gibbs, A. D. Grauer,
        H. Groeller, J. K. Hogan, R. A. Kowalski, S. M. Larson, G. J. Leonard, D.
        Rankin, R. L. Seaman, A. Serrano, F. C. Shelly, K. W. Wierzchos.  1.55-m
        reflector + 1K CCD.
    
    Orbital elements:
    2023 FE14                                                Earth MOID = 0.3735 AU
    Epoch 2023 Feb. 25.0 TT = JDT 2460000.5                 Veres                   
    M 358.99157              (2000.0)            P               Q                  
    n   0.17648677     Peri.   74.81502     -0.89630784     -0.24050068             
    a   3.1477093      Node    90.15308     +0.09510808     -0.92485776             
    e   0.6315972      Incl.   21.87290     +0.43311281     -0.29461423             
    P   5.58           H   21.05          G   0.15           U   9                  
    Residuals in seconds of arc
    230329 G96  0.8+  0.3+    230329 I52  0.2+  0.1+    230401 I52  0.3+  0.1+
    230329 G96  0.2+  0.1+    230329 I52  0.1+  0.3-    230401 I52  0.2-  0.3-
    230329 G96  0.1-  0.1+    230330 V06  0.1+  0.1+    230402 695  0.1-  0.1+
    230329 G96  0.4-  0.2-    230330 V06  0.1-  0.0     230402 695  0.0   0.1+
    230329 I52  0.7-  0.2+    230330 V06  0.2-  0.1+    230402 695  0.1-  0.2+
    230329 I52  0.4+  0.0     230330 V06  0.0   0.2-
    
    Ephemeris:
    2023 FE14                a,e,i = 3.15, 0.63, 22                  q = 1.1596
    Date    TT    R. A. (2000) Decl.     Delta      r    Elong.  Phase     V
    2023 03 03    16 03 57.7 +61 33 50   0.4293  1.1596   102.1    56.7    21.6
    ...
    2023 03 18    16 27 50.4 +56 36 13   0.4527  1.1757   102.0    55.9    21.7
    ...
    2023 03 26    16 28 50.0 +53 45 44   0.4615  1.1964   104.1    54.0    21.7
    ...
    2023 04 01    16 25 46.6 +51 26 33   0.4669  1.2170   106.5    51.9    21.7
    2023 04 02    16 25 00.2 +51 02 04   0.4677  1.2208   107.0    51.5    21.7
    2023 04 03    16 24 09.9 +50 37 10   0.4685  1.2248   107.5    51.1    21.7
    ...
    2023 04 09    16 17 51.6 +47 57 55   0.4734  1.2506   110.9    48.4    21.7
    ...
    2023 04 17    16 06 48.0 +43 54 20   0.4810  1.2905   116.2    44.2    21.7
    ...
    2023 05 02    15 42 41.1 +34 24 19   0.5077  1.3788   127.9    35.2    21.7
    
    M. P. C. Staff               (C) Copyright 2023 MPC           M.P.E.C. 2023-G15
    


    Read MPEC 2023-G14 Read MPEC 2023-G16


    MPEC number:

    Enter an MPEC number in one of the following forms:

    • 1997-B01 (the full form)
    • J97B01 (the packed version of the full form)
    • B01 (the abbreviated form)